Wind_Speed
7 6 6 6 6 8 10 11 14 15 17 20 21 23 24 24 24 22 21 22 23 21 20 20 18 17 18 19 21 22 22 22 23 23 22 22 20 17 16 18 19 19 17 15 14 12 10 9 8 8 9 9 9 9 10 11 13 13 14 14 14 15 15 15 15 14 13 12 12 13 13 13 13 13 14 14 15 15 16 17 18 18 18 18 17 16
10 8 7 8 9 10 10 11 12 14 15 17 18 21 23 25 27 25 24 23 24 24 22 21 20 19 19 21 22 24 24 23 22 23 22 22 21 19 18 22 26 23 19 18 16 15 14 11 8 4 6 7 8 9 10 13 16 16 16 15 15 15 17 17 16 14 13 13 13 13 14 14 14 14 14 15 15 16 17 17 18 18 18 18 18 17
8 7 8 9 11 12 13 13 14 16 17 17 16 16 17 20 26 28 27 25 25 26 24 21 21 21 20 22 22 22 23 22 20 22 23 20 20 22 22 26 29 24 19 19 17 17 15 9 4 3 8 12 12 12 14 16 18 18 17 15 14 15 16 18 17 16 16 16 16 16 16 16 15 15 15 15 16 16 17 17 18 18 19 19 18 18
8 10 11 13 14 15 17 18 20 21 21 21 19 15 13 13 19 26 29 29 27 27 26 23 23 23 23 22 20 18 20 21 20 21 22 20 17 16 16 20 26 23 17 13 11 12 12 10 9 16 19 20 18 16 16 17 17 18 18 16 14 15 16 18 19 19 20 21 21 20 19 19 18 17 17 17 17 17 18 18 18 18 18 18 18 17
12 13 14 16 17 19 20 21 22 22 22 23 22 15 10 9 13 21 26 30 31 29 28 26 25 25 25 23 19 17 19 20 19 17 16 15 12 11 11 10 15 19 16 12 16 16 12 16 24 28 26 24 21 19 17 16 17 18 19 18 18 18 18 20 21 22 23 23 22 22 22 21 20 20 20 20 20 20 19 18 18 18 18 18 18 17
13 14 16 17 19 19 20 20 20 20 20 20 21 16 10 7 7 14 20 25 30 31 30 28 26 26 25 23 20 18 17 19 19 17 14 13 14 16 15 13 12 17 19 21 24 23 21 26 30 31 30 29 25 21 20 21 22 22 22 22 22 22 21 21 21 22 23 22 21 21 22 21 22 23 23 23 23 23 22 21 20 20 19 19 19 19
14 15 15 17 18 18 19 19 19 19 18 16 17 17 14 9 4 5 11 16 22 26 27 28 28 26 25 23 21 19 18 18 19 19 18 18 18 19 19 18 18 21 22 24 25 26 28 30 31 32 33 33 30 27 27 28 28 26 24 22 22 23 22 22 22 22 23 23 22 22 23 23 24 25 26 25 24 24 24 24 23 22 22 21 21 20
14 15 16 17 17 18 18 16 16 16 17 16 15 15 15 11 6 2 4 9 13 16 18 24 28 27 24 23 21 20 19 18 19 19 19 19 20 21 21 21 22 24 25 27 28 29 30 32 33 34 34 35 35 33 32 32 30 27 24 23 23 23 24 25 25 25 24 25 26 27 27 27 27 28 28 26 26 26 26 26 25 25 24 23 23 22
15 15 16 16 16 16 16 14 14 16 16 17 17 14 13 10 7 4 1 5 9 12 14 18 25 27 24 23 22 22 21 20 19 19 19 19 20 21 22 23 24 25 26 28 29 31 32 34 34 34 35 36 37 36 34 32 31 29 28 28 27 27 27 29 29 29 28 28 29 30 31 30 29 30 30 28 27 27 28 28 27 26 25 24 24 23
15 15 15 15 16 16 17 17 17 17 16 17 18 16 13 9 6 4 3 6 9 11 13 15 21 26 25 23 23 22 21 21 20 19 19 20 21 23 24 25 25 26 27 29 31 33 34 34 34 35 35 36 37 37 35 33 32 32 32 32 32 31 32 31 31 32 32 32 30 30 32 32 31 32 32 31 29 28 30 30 29 28 26 26 25 24
14 13 14 15 16 17 19 19 18 18 17 17 18 19 15 10 6 4 4 7 10 11 12 13 18 23 25 23 22 21 20 20 20 20 20 20 22 23 25 25 25 27 29 30 31 34 36 36 36 36 36 36 36 36 34 32 32 32 33 34 35 34 34 33 33 34 34 34 32 30 31 33 32 32 33 32 30 29 30 32 32 31 29 28 27 26
13 13 14 16 17 18 20 20 20 20 18 18 19 19 16 14 10 6 5 8 10 12 13 14 17 21 24 24 22 20 19 19 20 20 21 22 22 23 24 25 26 29 30 32 35 39 40 39 38 37 36 35 35 34 33 31 30 31 32 35 36 35 35 36 36 35 34 34 34 32 32 34 34 33 32 32 30 29 29 32 34 34 32 31 30 29
13 13 13 15 17 18 20 21 22 21 19 19 20 19 18 17 14 9 6 6 8 11 13 15 17 20 22 23 21 20 19 19 20 21 22 23 24 25 26 27 30 32 34 37 40 40 38 37 37 36 36 35 35 35 34 33 31 30 30 33 35 35 35 36 37 36 34 34 35 35 36 36 35 34 31 31 31 30 30 32 35 35 34 32 32 32
12 12 12 14 15 17 18 19 20 19 18 18 19 18 18 17 15 12 8 5 3 5 9 13 15 18 20 20 20 18 18 18 20 21 23 24 26 28 29 31 33 35 37 38 37 35 34 35 35 36 36 36 36 35 34 34 32 31 30 32 34 35 35 35 35 35 34 34 36 37 36 35 36 37 34 32 32 32 32 33 33 34 34 34 33 34
12 12 12 12 13 15 15 16 17 16 16 17 17 16 16 16 13 11 9 7 4 1 3 7 10 12 14 15 14 14 16 18 21 22 24 26 28 30 31 33 34 35 35 34 33 33 34 34 34 34 34 34 34 33 33 33 32 32 31 31 33 35 36 36 36 35 34 36 38 39 37 34 34 35 34 34 34 34 35 36 35 36 36 35 35 35
12 12 12 10 11 13 14 15 15 14 14 16 15 13 14 14 12 10 9 7 6 4 2 3 6 7 9 10 10 13 16 18 21 22 24 26 28 30 31 32 33 33 33 32 32 32 32 31 31 31 31 31 32 32 31 31 31 31 31 31 32 34 35 37 37 35 35 36 38 40 39 37 36 34 34 35 35 35 37 38 38 38 38 38 36 35
11 11 10 9 10 12 13 13 12 12 14 15 13 12 13 12 11 9 8 8 7 6 5 2 2 4 6 7 8 11 14 16 18 19 22 24 26 27 28 29 30 30 30 30 30 30 29 30 30 30 31 31 31 31 30 30 30 30 30 31 32 33 35 36 37 37 36 36 38 39 39 38 37 37 37 38 38 38 37 37 38 39 40 39 38 37
11 11 11 10 10 11 11 11 10 11 13 13 12 12 12 11 10 9 8 7 8 7 6 4 2 1 2 4 5 8 10 12 14 16 19 21 23 23 24 25 25 26 26 27 28 29 30 30 31 31 31 31 31 30 30 30 29 29 29 30 31 32 34 35 37 37 37 37 38 39 38 38 37 37 38 40 41 41 39 37 37 39 39 38 39 39
12 12 11 11 10 11 10 9 9 11 12 11 11 11 11 10 9 8 7 6 6 6 4 3 2 1 1 3 5 7 9 11 13 15 17 19 20 20 21 22 22 23 25 27 28 30 30 31 31 32 32 32 32 31 31 31 31 30 30 30 30 31 32 34 36 37 37 37 37 38 38 38 38 37 38 40 41 42 42 40 39 38 37 37 38 40
13 13 12 12 11 10 11 10 10 11 11 11 10 10 10 10 9 8 7 6 6 5 3 2 1 1 2 4 5 7 9 11 13 15 17 17 18 19 21 22 23 24 26 28 30 31 32 32 31 32 32 33 33 33 33 33 33 33 32 32 31 31 32 33 35 36 37 37 37 37 38 38 38 37 38 39 40 40 42 43 42 41 40 39 39 39
13 14 13 13 12 11 11 11 11 11 10 10 9 9 9 9 8 8 7 7 6 5 4 3 3 4 4 5 6 8 10 12 13 15 17 18 19 21 22 23 24 26 27 29 30 32 32 32 32 31 32 32 32 33 33 34 34 35 35 34 34 33 33 33 34 36 37 38 38 37 37 37 37 37 38 40 40 40 40 41 42 41 42 42 41 41
13 14 14 14 13 12 11 11 12 11 10 9 9 8 8 8 7 7 6 6 5 4 4 4 4 5 6 7 8 9 11 12 14 16 18 19 20 21 22 23 25 26 27 28 29 30 30 31 32 32 32 32 32 33 33 34 34 35 35 36 36 35 34 33 34 35 36 38 39 38 38 37 37 37 37 38 40 40 40 40 39 39 39 40 41 42
13 14 14 14 13 12 11 10 10 10 9 8 7 7 6 7 6 6 6 5 4 4 3 4 5 6 6 7 8 10 12 13 15 16 17 18 19 20 22 23 25 26 26 27 28 29 30 31 32 32 32 32 33 33 34 35 36 36 37 37 37 36 35 33 32 33 35 36 37 38 39 38 38 37 37 37 38 39 39 39 39 38 37 37 38 39
12 13 14 13 12 12 11 10 9 8 7 6 6 6 6 7 6 6 6 5 5 5 4 5 6 7 7 8 10 11 12 13 14 15 16 17 18 20 21 22 23 24 26 27 28 29 30 31 31 31 32 32 33 34 35 36 37 38 39 38 37 36 35 34 33 32 33 34 36 36 37 38 38 38 38 38 38 37 38 38 38 38 38 38 39 39
12 13 13 13 12 11 11 10 9 8 7 7 7 7 6 6 7 6 6 6 6 6 6 6 7 8 9 10 11 11 12 13 14 16 17 18 19 20 21 22 23 24 26 27 28 29 29 29 30 30 31 32 33 34 35 37 38 39 39 38 36 35 34 34 33 33 32 32 33 35 35 36 36 37 37 38 39 38 37 36 36 37 38 38 39 40
12 12 13 13 13 12 12 12 11 10 9 9 8 7 7 7 8 8 7 8 8 8 8 8 9 10 11 11 12 12 13 14 15 16 17 18 19 19 21 22 23 25 26 27 28 29 29 29 29 30 30 31 32 33 35 36 38 38 38 37 35 34 34 33 33 33 32 32 32 33 34 35 35 35 36 37 38 39 38 36 35 35 36 36 37 38
11 12 12 14 14 14 14 14 12 11 10 10 8 7 7 8 8 9 9 9 10 10 10 10 11 12 12 12 13 13 13 14 14 15 16 17 18 18 20 22 24 25 26 27 28 29 30 30 30 30 31 31 32 33 34 35 36 36 35 34 33 32 32 31 32 32 32 31 31 32 33 34 35 35 34 35 36 38 39 38 36 34 34 35 35 36
11 11 12 14 15 15 15 14 13 12 11 10 9 8 8 9 9 9 10 10 10 11 11 11 12 12 13 13 13 13 13 13 14 15 16 17 18 19 20 22 24 25 27 28 29 30 31 31 31 31 31 32 32 33 34 34 35 35 34 32 31 31 30 30 30 31 31 31 30 30 31 33 34 35 35 34 34 35 37 38 37 35 34 34 34 34
11 12 12 14 15 16 16 15 13 11 11 10 9 9 9 10 10 10 10 10 11 11 12 12 12 13 13 13 13 13 13 14 15 16 17 18 19 20 22 23 24 26 27 28 30 31 32 33 33 33 33 33 33 33 34 34 34 34 32 31 29 28 28 29 29 30 31 32 31 30 30 31 33 34 35 34 33 33 34 36 37 37 35 34 33 32
10 11 12 14 16 16 16 15 12 11 11 10 9 9 9 9 9 9 10 10 11 11 12 13 13 13 14 13 13 13 14 15 16 17 18 19 20 21 22 23 25 26 28 29 30 31 32 33 34 34 34 34 34 34 34 34 34 33 32 30 28 27 27 28 30 31 31 31 31 30 29 30 31 32 33 34 34 33 33 34 35 36 36 35 34 32
10 10 11 14 16 16 17 16 13 11 11 10 9 9 9 9 9 10 10 10 11 12 13 13 13 13 14 14 14 14 15 16 17 18 19 19 20 22 23 24 25 27 28 29 30 32 33 34 34 34 35 35 35 35 34 34 34 33 31 29 28 28 28 29 30 30 31 31 30 29 29 30 31 31 32 33 34 34 33 33 34 35 36 37 36 34
10 10 11 13 15 17 18 17 15 12 11 10 10 10 10 10 11 11 11 11 11 12 13 13 13 13 13 14 14 15 16 17 18 19 20 20 21 22 23 25 26 27 28 29 31 32 33 34 34 35 35 35 35 35 35 35 34 33 32 30 29 29 30 30 30 30 31 31 29 28 27 28 30 31 31 31 33 35 34 33 33 34 35 37 37 37
10 11 11 13 14 16 17 17 15 13 11 10 10 11 11 11 11 11 12 12 12 12 14 14 14 13 14 14 15 16 16 17 18 19 20 21 22 23 24 25 27 28 29 30 31 32 33 34 35 35 35 35 35 36 36 35 35 34 33 31 30 30 31 31 31 31 30 31 30 28 26 26 28 30 30 30 31 34 35 34 33 33 34 36 38 38
11 12 13 13 14 16 18 17 15 13 12 11 11 11 12 12 12 12 12 13 13 13 15 15 15 15 15 15 16 16 17 18 19 20 21 22 23 24 25 26 27 28 29 30 31 32 33 35 35 36 36 35 36 36 36 35 35 35 34 33 33 32 32 32 32 31 30 30 30 29 27 26 26 27 29 29 29 31 34 34 33 32 33 34 36 38
13 14 14 15 15 16 18 18 16 14 13 12 12 12 12 12 12 13 14 14 14 14 15 16 17 16 16 16 17 17 18 18 19 20 21 23 24 25 26 27 28 28 29 30 31 33 34 35 36 36 36 36 36 36 36 36 35 35 35 35 34 33 32 32 32 31 30 29 28 28 28 26 26 26 26 27 27 28 32 34 34 33 32 33 34 36
16 16 15 15 15 16 17 19 18 16 15 13 13 13 13 13 13 13 15 16 15 15 16 17 18 18 17 18 18 18 18 19 20 21 22 23 25 26 27 28 28 29 29 31 32 33 35 35 36 36 36 36 36 36 35 35 35 36 36 36 35 34 33 33 32 32 31 29 28 27 27 27 26 26 25 25 25 26 29 33 34 34 33 32 33 34
16 16 16 15 15 16 16 18 19 19 17 16 15 15 15 16 16 15 16 17 17 16 16 17 18 19 19 19 19 19 19 20 21 22 23 24 25 26 28 29 29 29 30 32 33 34 34 35 36 36 36 36 36 35 35 35 35 36 36 36 36 36 35 35 34 32 32 31 30 28 27 27 27 26 26 24 24 24 27 31 33 34 34 32 32 33
15 16 16 16 16 16 16 17 17 18 18 17 17 17 17 17 17 17 17 18 18 17 17 17 18 19 20 20 20 20 20 21 22 23 23 24 26 27 29 30 30 30 31 32 33 34 34 35 36 36 36 36 36 36 36 35 35 35 36 36 36 37 37 36 35 33 32 32 32 31 30 28 27 27 26 25 24 24 26 29 32 34 34 33 32 32
17 16 17 17 17 17 16 17 17 17 17 16 17 17 17 17 17 18 18 18 18 18 18 18 18 18 19 20 21 21 22 22 23 24 25 26 27 28 30 31 31 31 32 32 33 34 34 35 36 36 37 37 36 36 36 36 36 36 35 35 36 37 37 37 36 34 33 32 32 32 32 31 30 28 27 26 26 25 25 27 29 32 34 34 32 32
20 19 18 18 18 18 17 16 17 18 18 17 17 17 17 17 18 19 19 19 19 19 19 19 19 19 19 20 21 22 23 24 25 26 27 28 29 30 31 32 32 32 32 33 33 34 35 35 36 36 37 37 36 36 36 36 37 37 36 36 36 37 37 37 36 36 35 33 32 32 33 33 32 30 29 27 26 26 26 26 27 29 33 34 34 32
21 21 21 20 19 19 18 16 16 17 19 19 18 18 18 18 19 20 21 21 22 21 21 21 21 21 21 22 22 23 24 25 26 26 27 29 30 31 32 33 33 33 33 33 34 34 35 35 36 36 37 37 37 36 36 37 38 38 38 38 37 37 37 37 37 37 37 36 35 33 32 33 33 32 31 29 27 26 26 26 25 26 29 32 34 34
22 22 23 23 22 20 19 18 17 16 18 19 19 19 19 19 20 21 22 22 23 24 23 23 23 23 23 23 24 25 26 26 27 27 28 29 31 32 32 33 34 34 34 34 34 34 35 36 36 37 37 37 38 37 37 38 38 39 39 39 39 38 38 38 38 38 38 38 37 35 34 33 33 33 32 31 29 27 27 26 25 25 26 29 32 34
24 23 23 24 24 22 21 20 19 17 18 19 20 20 20 20 21 22 22 23 24 25 26 26 25 25 26 26 26 27 28 28 28 28 29 30 32 33 33 34 34 34 34 34 34 35 36 37 37 37 38 38 38 38 38 39 39 40 40 40 40 39 39 38 38 39 39 39 39 37 35 34 33 33 33 32 30 28 27 27 26 25 25 26 29 32
26 26 25 25 25 25 23 22 21 20 19 19 20 20 21 21 22 22 23 24 25 26 27 27 27 27 27 28 28 29 29 29 29 29 30 31 33 33 34 34 35 35 35 35 35 36 37 37 38 38 38 38 38 39 39 40 40 41 41 41 40 40 40 39 39 39 39 40 39 39 37 35 34 33 33 32 31 29 28 27 27 26 25 25 27 30
28 28 28 27 27 26 25 23 22 21 20 20 20 21 21 22 22 22 23 24 25 26 27 28 28 28 28 28 29 29 29 30 29 29 30 32 33 34 34 35 35 35 36 36 36 37 38 38 38 39 39 39 39 39 40 40 41 42 42 41 41 41 40 40 40 40 40 40 40 39 39 37 36 34 33 32 32 30 28 27 27 27 25 25 26 28
29 30 29 28 28 27 25 23 22 21 21 20 20 21 22 23 23 23 23 24 24 25 27 27 28 28 28 29 29 29 29 29 29 30 31 32 33 34 35 35 36 36 37 38 39 39 39 39 40 40 40 40 40 40 40 41 41 42 42 41 41 41 41 40 40 40 40 40 40 40 39 38 37 36 34 33 32 32 30 28 27 27 26 26 25 26
29 30 30 30 29 28 25 23 22 21 21 21 21 21 23 24 24 24 25 25 25 25 26 27 27 28 28 28 29 29 29 29 29 30 31 32 33 34 35 36 37 37 38 39 40 40 40 40 41 41 41 41 41 41 41 41 42 42 42 42 41 41 41 41 41 41 41 41 40 40 39 38 37 37 36 34 33 33 32 30 28 26 26 26 26 26
30 31 31 30 29 27 24 22 21 20 20 21 21 22 23 25 25 26 26 26 26 26 26 27 27 27 28 28 28 29 29 29 29 30 31 33 35 36 36 37 37 37 38 38 39 40 41 41 41 41 41 41 41 41 41 41 41 42 42 42 42 42 42 41 41 41 41 41 41 40 39 39 38 37 36 36 35 34 33 32 30 28 26 26 26 26
31 32 32 30 28 25 23 21 19 18 19 21 21 22 24 25 26 27 28 27 27 27 27 28 27 27 28 28 28 29 29 30 30 31 33 34 36 36 37 37 36 36 37 38 39 40 41 41 42 42 42 42 42 42 42 42 42 42 42 43 43 43 42 41 41 41 42 42 42 41 40 39 38 38 37 36 36 35 34 33 32 29 27 26 26 26
32 32 31 29 25 22 20 19 18 18 19 20 21 22 24 25 26 27 29 28 28 27 28 29 28 28 28 29 29 29 30 31 32 33 34 35 36 37 37 37 37 37 38 38 39 40 41 42 43 43 43 43 43 42 42 42 42 42 43 43 44 43 42 42 41 41 42 42 42 42 41 39 39 38 37 36 36 36 36 35 33 31 28 26 26 27
31 30 29 26 22 18 16 17 17 18 19 20 21 22 23 24 26 27 29 29 28 28 29 30 30 30 30 30 30 31 31 32 33 34 36 37 37 38 38 38 38 39 39 40 40 41 42 43 43 43 43 43 43 43 43 43 43 43 44 44 44 43 43 42 42 41 42 42 43 42 41 40 39 38 38 37 36 36 36 35 35 34 31 28 26 27
Wind_Direction
355 347 332 313 298 288 279 272 267 262 257 254 251 247 240 234 227 216 210 206 198 198 195 188 188 191 197 207 217 221 224 226 228 230 236 240 239 242 248 244 241 242 243 244 247 251 257 266 286 319 340 341 335 324 318 321 322 321 319 310 287 266 258 256 254 254 258 261 264 264 264 263 264 267 268 269 268 268 268 268 269 269 269 268 268 269
347 340 333 327 321 319 312 298 288 281 278 273 268 261 250 244 237 224 213 207 199 195 197 194 192 198 205 210 218 223 227 231 235 238 242 244 243 242 244 236 232 237 241 244 250 250 253 266 279 324 0 345 329 324 320 317 315 310 307 309 304 284 267 261 260 260 262 264 265 265 263 261 258 258 261 264 265 265 265 267 268 269 269 270 270 271
340 337 338 342 341 339 336 327 320 315 314 308 298 287 268 248 240 232 219 209 201 197 198 197 194 201 209 213 220 228 234 237 241 246 245 243 242 241 247 242 233 240 251 251 255 252 245 247 255 298 318 319 316 315 319 317 315 311 302 296 297 289 273 266 266 269 275 277 273 268 263 259 254 251 253 256 259 260 261 262 264 266 267 268 270 271
3 1 360 358 353 348 345 338 332 329 328 322 314 307 291 259 237 231 223 212 204 200 200 198 196 202 212 216 220 229 237 239 244 247 238 234 242 246 260 253 235 238 245 246 270 267 231 227 289 307 308 314 313 304 306 308 308 312 309 302 294 289 280 272 268 270 277 282 279 271 264 260 255 251 249 249 251 253 255 257 259 261 263 265 267 269
11 9 5 2 358 353 346 338 332 331 329 322 320 320 310 280 239 227 223 213 205 201 201 200 200 205 213 219 222 228 235 239 246 253 241 239 262 276 291 282 241 239 247 266 299 300 270 270 296 308 309 314 314 305 303 301 299 302 304 302 297 293 289 282 276 274 276 280 278 270 264 263 261 258 254 249 247 247 248 250 254 257 260 262 264 265
10 9 6 4 0 352 345 340 334 331 326 321 322 329 334 321 256 228 225 217 208 203 202 202 204 209 214 220 225 230 237 240 245 259 263 262 278 288 293 295 276 268 274 285 297 302 298 296 303 309 310 311 311 307 303 299 296 297 296 294 291 289 290 288 286 283 279 277 272 265 263 265 266 265 263 258 254 251 249 247 248 252 255 258 259 260
10 8 6 6 1 353 352 347 337 332 330 330 331 333 340 348 332 228 222 219 211 208 207 205 208 214 217 222 228 233 239 243 247 258 267 269 278 288 292 295 293 291 290 294 299 302 304 305 307 308 307 308 307 304 300 298 298 299 297 293 287 283 284 287 287 286 282 274 265 260 261 267 270 269 268 266 264 260 255 250 248 249 251 253 254 256
11 9 6 7 2 360 1 350 340 343 342 346 348 342 343 353 3 356 211 204 199 201 203 205 211 218 220 223 231 237 241 246 252 260 268 274 281 286 292 296 297 297 297 298 299 300 301 302 303 304 303 304 304 303 300 298 298 296 292 291 288 281 279 280 280 281 280 273 264 259 261 267 271 270 268 267 266 264 261 257 253 250 250 251 253 256
11 8 3 4 4 6 11 7 1 1 353 353 1 360 356 3 14 18 151 175 175 181 190 201 212 218 220 224 231 237 241 246 252 260 269 277 283 287 291 294 295 294 294 295 295 297 298 299 300 300 300 301 302 301 299 297 294 290 287 287 284 278 275 274 274 275 276 273 267 262 262 266 268 267 266 264 261 262 262 261 259 255 253 254 255 258
10 4 358 2 5 8 18 25 19 14 5 359 5 14 17 19 29 43 121 157 165 175 185 199 210 215 218 226 233 237 242 247 252 260 269 277 284 288 291 292 293 294 295 297 299 300 301 301 300 298 298 298 299 299 297 295 292 289 288 285 282 279 277 275 276 278 275 270 266 263 262 262 264 264 265 263 258 256 255 255 256 256 255 256 258 260
9 3 358 1 6 10 20 30 30 24 18 11 11 19 25 31 41 58 116 151 165 175 186 198 207 212 216 225 233 238 244 251 258 264 272 278 282 285 288 290 292 296 298 299 301 303 303 301 299 298 297 296 296 296 295 293 291 289 287 284 282 282 281 280 282 283 279 271 265 265 264 261 260 260 260 259 258 258 256 251 250 250 251 252 254 257
10 9 2 1 7 12 16 27 35 31 25 23 23 23 28 39 45 61 107 145 164 175 189 203 207 211 217 223 230 240 251 259 264 269 274 278 280 281 284 287 291 294 295 297 301 304 303 300 298 297 296 296 295 295 294 293 291 288 286 284 282 282 280 279 280 280 279 274 267 268 270 265 259 256 255 255 256 260 261 254 248 247 248 250 251 253
12 16 7 360 7 13 13 19 27 29 28 30 31 29 33 42 46 54 81 130 163 177 193 206 211 214 221 227 235 249 263 270 274 278 282 285 287 288 289 290 292 294 295 298 302 303 302 299 298 297 296 296 295 294 293 292 291 288 285 283 282 282 280 279 279 277 276 273 269 269 271 266 258 254 255 256 256 259 261 257 250 246 247 250 252 254
15 19 12 3 6 10 13 18 20 22 28 34 35 33 37 43 45 46 51 66 126 184 202 210 216 221 227 236 246 260 273 281 286 290 292 293 293 293 293 294 294 296 298 300 302 301 300 299 298 298 298 297 296 295 295 294 293 290 287 284 282 281 280 279 279 277 274 272 269 269 271 268 259 254 257 260 258 257 258 258 254 251 250 251 253 256
16 18 16 6 1 4 11 20 21 19 26 36 38 37 43 46 46 46 44 39 35 3 235 230 234 237 242 249 260 276 287 292 295 297 298 297 297 296 296 297 299 301 302 303 302 302 302 302 301 301 301 301 301 300 300 299 298 295 292 288 284 283 282 281 280 277 274 271 269 269 272 271 263 257 259 264 262 258 257 258 256 253 253 254 255 256
19 21 18 3 354 1 10 17 20 22 27 36 40 40 48 53 51 52 54 51 44 31 8 279 268 275 275 275 284 292 293 294 294 295 297 297 298 298 300 302 304 305 305 305 306 306 307 307 307 307 306 305 305 305 305 303 302 300 297 292 288 285 284 283 282 280 275 271 270 270 271 269 266 262 261 263 263 261 259 258 256 255 255 256 256 254
24 23 20 5 354 1 11 12 15 26 31 33 36 41 50 56 56 57 63 70 71 63 59 43 330 313 297 294 298 293 288 287 289 293 295 296 296 297 298 301 303 304 306 307 309 311 312 313 313 312 310 309 308 307 306 305 303 302 300 295 291 286 284 283 283 282 279 274 271 271 270 268 267 265 263 262 263 262 260 256 254 254 255 257 256 253
27 25 22 14 4 4 11 9 11 27 32 29 29 36 44 50 54 58 65 76 81 78 80 84 74 37 286 281 277 274 276 281 286 289 289 288 289 290 294 298 301 305 307 309 310 311 312 315 316 316 314 312 310 309 307 306 304 302 300 297 293 288 285 282 282 282 281 278 275 272 271 269 267 265 263 262 262 263 262 257 253 253 253 255 256 255
25 26 26 23 15 9 10 13 18 26 27 24 24 30 35 38 40 45 53 65 71 72 82 98 120 154 221 258 260 264 272 277 279 281 282 283 288 294 300 304 307 307 307 307 309 311 312 314 315 314 313 312 311 310 309 308 306 304 301 298 295 290 286 282 281 280 279 279 277 276 274 271 268 266 264 263 262 263 263 259 256 256 253 252 253 255
22 23 25 25 21 11 8 17 29 31 24 18 18 22 26 29 29 29 32 38 43 49 55 36 349 307 286 281 274 272 274 277 277 279 284 290 298 304 305 306 308 308 310 313 315 316 316 314 313 312 310 310 310 310 309 308 307 306 303 300 297 292 288 284 281 279 278 277 276 275 275 273 271 268 266 265 265 264 263 261 259 257 256 254 254 255
19 20 21 22 21 13 6 10 22 31 28 20 17 16 17 19 18 18 19 19 20 23 20 359 331 315 304 291 283 280 280 282 284 288 295 302 305 305 306 310 315 318 320 322 321 320 318 316 316 314 313 312 311 310 309 308 307 306 304 301 298 294 290 286 282 279 277 276 274 273 272 272 271 269 265 265 265 264 263 262 260 257 256 256 255 255
16 17 17 18 17 12 4 1 5 12 15 14 12 11 12 12 9 7 9 11 10 8 3 339 314 306 302 296 293 291 288 289 291 296 301 303 304 308 315 322 325 325 325 323 321 320 321 321 322 321 320 318 317 316 315 314 312 310 308 305 301 297 293 288 284 280 277 275 274 272 270 269 268 268 266 264 263 264 263 262 261 259 257 255 254 255
17 16 16 15 13 6 360 357 357 356 355 358 1 4 8 7 2 359 358 359 355 346 334 308 296 295 292 290 290 286 285 288 291 295 299 304 312 321 326 327 325 324 324 323 324 325 326 326 326 325 324 323 322 321 320 319 317 314 312 309 305 302 298 293 288 283 280 277 275 273 271 269 266 266 266 264 264 263 263 263 262 261 259 257 256 255
17 16 15 14 10 1 355 356 356 351 343 346 356 6 8 359 352 349 344 339 331 321 312 300 298 299 297 295 293 292 294 298 302 307 313 319 324 326 325 324 323 324 326 326 327 328 329 329 328 327 326 325 325 324 323 321 320 317 315 312 309 305 301 298 294 289 285 281 279 276 274 272 269 265 264 263 263 263 262 262 262 261 259 257 257 256
15 14 12 12 8 359 355 357 358 354 351 356 3 2 358 349 341 337 332 326 321 318 316 313 311 310 308 307 308 309 313 317 321 324 326 325 325 326 326 325 325 327 329 330 330 331 332 331 330 329 328 327 326 325 324 323 322 320 318 315 311 306 303 300 297 293 289 285 282 280 278 276 273 269 264 262 261 262 262 262 262 262 260 258 257 256
9 8 7 9 6 360 359 1 1 359 1 5 4 354 345 340 334 330 329 326 325 328 328 326 323 320 317 318 320 323 326 327 328 327 324 323 325 327 326 326 328 331 332 332 333 334 335 334 333 331 330 329 328 327 326 325 324 322 320 317 313 309 305 302 299 296 293 289 285 282 279 277 275 273 268 264 260 259 260 261 261 262 262 260 258 256
3 3 2 4 3 0 1 3 2 1 3 4 1 350 338 333 330 329 330 332 334 335 334 333 328 322 321 323 327 329 329 328 326 322 320 321 324 326 326 328 331 332 332 334 336 337 337 336 335 334 332 331 331 330 329 327 327 325 323 320 317 314 311 308 305 301 298 294 289 285 281 278 276 274 271 267 262 258 256 257 258 259 260 260 259 257
354 358 359 359 360 359 359 2 2 360 1 1 356 345 334 330 330 328 329 335 338 335 332 330 325 321 322 326 329 329 328 326 323 320 321 323 326 328 330 331 331 331 333 337 338 338 337 337 337 336 335 334 333 332 331 330 330 329 327 324 320 317 315 314 312 309 306 302 297 291 286 282 278 274 272 270 266 261 256 254 254 256 258 258 258 257
345 352 356 356 357 355 355 359 1 357 359 360 350 338 330 327 327 325 326 331 334 331 327 326 325 322 323 325 326 326 325 324 322 322 323 326 328 330 331 330 330 332 335 338 338 337 337 338 338 338 337 336 335 334 333 332 332 332 330 327 324 320 318 316 315 313 310 307 303 297 291 287 283 277 273 270 268 265 260 256 252 252 254 256 257 257
341 348 352 352 353 351 349 354 358 356 357 356 346 333 327 325 325 324 326 329 329 328 325 324 324 321 321 323 326 325 324 322 321 322 323 326 327 328 328 327 329 333 336 337 337 337 337 338 339 339 338 338 337 337 336 335 335 335 333 330 327 324 321 319 316 314 311 308 305 300 294 290 287 282 276 272 269 266 263 259 254 250 250 252 253 254
334 344 351 350 348 345 345 348 353 355 355 353 343 335 330 330 331 329 329 330 329 326 323 322 320 318 320 324 326 324 323 322 321 322 323 324 325 325 325 326 329 333 336 336 336 336 337 338 339 340 339 339 338 338 337 337 337 337 335 332 328 325 323 321 319 317 315 312 308 302 296 291 288 286 281 274 270 268 264 261 257 253 249 249 251 250
329 339 350 349 344 341 341 344 347 350 352 349 342 337 335 333 334 333 331 331 330 326 322 319 318 319 323 326 326 324 323 322 321 322 323 323 323 323 324 326 329 332 334 335 335 336 337 338 339 340 340 339 339 339 339 339 338 338 336 332 328 324 324 324 323 323 322 320 316 309 301 293 290 289 287 279 272 269 267 263 259 256 251 249 249 250
332 336 344 345 341 338 337 339 342 342 344 344 340 337 335 332 330 329 330 332 332 328 323 321 321 324 327 328 327 325 323 322 321 322 322 321 321 322 324 326 328 331 333 334 334 335 336 338 339 340 340 339 339 339 340 340 339 339 337 334 330 327 325 324 325 326 327 326 323 319 311 301 294 292 291 286 277 270 268 266 262 259 255 251 249 250
337 338 339 340 340 337 334 335 339 340 340 339 336 334 332 328 325 325 329 333 333 329 324 322 323 327 329 329 328 326 324 322 321 321 321 320 321 322 324 325 327 330 332 332 333 335 336 338 339 340 340 340 340 340 340 340 340 339 338 336 334 331 327 325 324 326 328 328 326 323 318 311 303 297 295 293 285 274 268 267 266 263 259 255 251 250
340 340 337 334 335 335 334 334 338 340 339 334 329 328 326 324 323 325 327 332 332 328 324 321 322 326 329 329 328 327 324 322 321 320 320 320 321 322 323 324 326 329 330 330 332 333 335 337 339 339 339 339 340 340 340 339 339 338 338 337 336 333 329 326 324 324 326 329 329 326 322 318 312 305 301 298 293 282 271 266 266 264 262 258 254 251
337 336 333 328 328 331 333 334 335 337 337 331 324 324 323 323 324 325 326 328 330 327 323 319 320 324 328 329 328 326 323 321 320 320 321 321 321 322 322 323 325 328 329 329 330 332 334 336 338 338 339 339 340 340 339 339 338 338 337 337 336 334 332 330 328 325 324 325 327 327 325 322 318 313 308 303 298 288 275 267 264 263 262 260 257 254
334 330 327 325 324 326 331 335 334 333 333 329 322 323 325 324 325 326 323 323 324 324 321 318 318 322 326 328 327 324 322 322 321 321 321 321 321 322 322 322 325 327 328 328 330 332 333 335 336 337 338 339 339 339 339 339 338 337 337 336 335 334 333 333 332 330 326 323 322 323 324 324 323 320 315 309 302 291 280 270 264 261 261 260 258 255
336 331 326 323 322 322 326 331 330 329 328 324 320 322 325 322 321 321 318 316 318 319 318 316 316 319 323 325 324 324 323 323 322 322 322 322 322 322 322 322 325 326 327 328 329 331 332 333 334 336 337 338 338 338 338 338 338 337 336 335 333 332 333 333 333 331 329 325 320 318 318 319 322 323 321 316 308 298 287 277 268 262 259 259 259 257
335 332 327 323 321 320 320 324 325 324 323 320 317 319 321 318 316 316 314 312 313 314 315 316 317 318 320 322 323 323 323 323 323 324 324 324 323 322 322 322 324 326 327 328 328 329 330 331 333 334 336 337 337 337 337 336 336 335 335 334 333 332 332 332 332 330 328 326 323 319 316 314 316 318 320 319 314 306 296 286 277 267 261 258 258 258
327 327 326 322 320 317 315 317 319 319 319 318 318 321 322 319 316 314 313 311 312 313 314 317 320 321 322 323 323 324 324 325 326 326 326 325 324 322 322 323 324 325 326 326 326 327 329 330 331 333 334 336 336 336 336 335 334 334 335 334 333 333 332 331 330 329 328 327 325 322 319 317 314 313 315 316 316 311 304 295 286 276 267 261 258 257
318 319 319 318 317 315 313 313 314 315 315 317 321 324 324 322 318 316 315 314 314 316 318 320 322 323 324 325 325 324 324 325 326 326 325 324 323 322 322 322 323 324 324 325 325 327 328 329 330 332 333 334 335 335 335 334 333 333 334 334 334 333 332 330 329 329 329 328 326 324 322 320 317 313 311 310 312 312 308 302 294 285 275 267 261 257
311 311 311 311 312 313 312 311 312 312 311 314 319 323 324 323 321 319 317 315 315 317 320 322 323 323 324 325 324 323 323 325 326 326 325 324 322 321 321 321 322 323 323 324 325 326 327 328 329 330 331 332 333 334 334 333 332 333 334 334 334 333 332 330 329 329 328 328 327 325 323 321 318 315 312 309 307 308 308 306 301 292 282 273 265 260
307 306 306 306 307 309 310 310 311 310 309 311 316 321 324 324 323 321 319 317 317 318 320 321 323 323 324 324 324 323 323 325 327 327 325 323 322 321 321 320 321 321 322 323 324 325 326 327 328 329 330 330 331 332 332 331 331 333 334 334 333 332 331 330 328 328 327 327 326 325 323 321 318 316 314 310 306 303 303 304 303 298 289 279 271 264
307 306 305 304 305 306 307 309 310 310 310 311 314 319 323 324 323 322 321 319 318 318 319 320 322 323 323 323 322 322 323 324 325 325 323 321 320 320 319 319 319 320 321 322 323 324 325 326 327 327 328 329 330 331 331 331 331 332 334 334 332 331 330 329 328 327 326 325 325 324 323 321 318 316 314 312 309 303 299 299 300 299 294 286 278 270
307 306 305 304 303 303 305 306 307 308 310 310 311 316 320 322 322 322 321 321 319 318 318 318 319 320 320 320 320 320 321 321 322 321 320 319 318 318 317 318 319 320 321 322 322 323 324 325 325 326 326 328 329 329 329 330 331 332 333 333 332 331 330 329 327 326 325 324 324 323 322 321 319 317 314 312 310 307 301 296 295 296 296 290 283 276
307 305 304 301 300 300 302 303 304 306 309 308 308 313 318 320 321 321 321 321 319 317 316 317 317 317 317 317 317 317 318 319 319 319 318 317 316 316 317 319 320 321 321 322 322 323 323 323 324 325 326 327 327 327 328 329 330 330 331 332 331 330 329 328 327 325 324 324 323 322 321 320 319 317 315 312 311 309 306 300 293 292 293 292 287 280
306 304 301 299 298 299 299 299 300 303 306 305 306 311 316 318 319 320 321 321 319 317 317 317 316 316 315 315 315 316 317 317 317 317 317 316 316 317 319 320 321 321 321 321 321 321 322 322 323 324 324 325 325 326 327 328 329 329 329 330 331 330 329 328 326 325 324 323 322 321 320 319 318 317 315 313 311 309 308 305 298 291 288 289 289 284
304 302 300 300 301 301 299 297 297 300 303 303 304 310 314 316 318 319 320 321 320 319 318 317 316 314 314 314 315 316 316 316 316 316 317 317 318 319 320 320 320 319 319 319 319 319 320 321 321 322 323 323 324 325 325 326 327 327 328 329 331 330 329 327 325 324 323 322 322 321 320 318 317 316 315 313 311 309 307 306 303 296 289 286 286 286
302 303 304 305 305 304 300 296 295 298 301 301 303 308 312 315 317 318 319 320 321 319 317 316 316 315 314 314 315 315 315 316 317 318 319 319 319 319 319 319 318 317 317 317 317 318 319 320 321 322 323 323 323 323 324 324 325 326 327 328 330 330 329 326 325 324 322 321 321 320 319 318 317 316 315 313 311 309 308 306 305 301 294 288 285 284
304 307 310 313 314 309 301 295 293 296 298 299 301 306 310 314 316 317 318 320 320 318 316 315 316 315 315 314 315 315 316 317 318 319 319 318 318 317 317 316 316 316 316 316 317 318 319 320 321 322 323 323 322 322 323 323 325 326 327 328 328 329 327 326 324 323 321 320 320 319 319 318 316 315 314 313 311 310 308 307 305 303 299 292 287 284
307 312 317 323 324 315 302 292 290 293 294 296 299 303 309 313 316 317 318 319 319 318 316 315 315 315 315 316 316 317 318 318 319 319 318 317 317 316 316 316 316 316 316 317 318 319 319 320 321 322 322 322 321 321 322 324 325 326 326 327 327 327 326 325 323 322 320 319 318 318 318 317 315 314 313 312 310 309 307 306 305 304 302 297 291 286
Height
5782 5782 5781 5781 5780 5780 5779 5778 5777 5777 5776 5776 5776 5776 5776 5777 5778 5780 5781 5782 5783 5785 5785 5786 5787 5788 5788 5788 5788 5789 5789 5791 5792 5793 5794 5794 5796 5797 5797 5798 5797 5796 5797 5797 5797 5798 5797 5798 5799 5800 5801 5801 5801 5801 5800 5800 5799 5799 5798 5798 5797 5796 5795 5794 5794 5794 5794 5794 5794 5795 5794 5794 5794 5794 5793 5793 5793 5793 5793 5793 5793 5793 5793 5792 5792 5791
5783 5782 5782 5781 5780 5779 5778 5777 5776 5775 5774 5773 5773 5773 5773 5774 5775 5778 5779 5780 5782 5783 5784 5785 5786 5786 5786 5787 5787 5788 5789 5790 5792 5793 5793 5793 5794 5794 5793 5793 5792 5792 5795 5796 5796 5796 5796 5797 5798 5799 5799 5799 5799 5799 5799 5798 5798 5797 5796 5796 5796 5795 5794 5794 5793 5792 5792 5792 5792 5792 5791 5791 5791 5790 5790 5790 5791 5791 5791 5791 5791 5791 5790 5790 5789 5789
5784 5783 5782 5781 5780 5778 5777 5775 5773 5771 5770 5770 5769 5769 5769 5770 5771 5773 5776 5778 5780 5781 5783 5784 5785 5785 5785 5785 5786 5787 5789 5791 5792 5793 5792 5791 5792 5792 5792 5791 5791 5792 5794 5794 5794 5795 5796 5797 5797 5798 5798 5797 5797 5797 5797 5797 5796 5795 5794 5793 5793 5793 5793 5792 5792 5791 5790 5790 5789 5789 5788 5788 5788 5787 5787 5787 5787 5787 5788 5788 5788 5788 5788 5787 5787 5786
5783 5782 5781 5780 5778 5776 5774 5772 5770 5769 5767 5766 5766 5766 5766 5766 5767 5768 5772 5775 5777 5779 5781 5783 5784 5784 5784 5784 5785 5787 5789 5790 5791 5791 5791 5791 5792 5793 5792 5790 5791 5793 5793 5793 5794 5794 5796 5795 5794 5795 5796 5795 5795 5795 5795 5794 5793 5792 5792 5791 5791 5790 5790 5790 5789 5789 5788 5788 5787 5786 5785 5785 5784 5784 5784 5783 5783 5783 5783 5784 5784 5784 5784 5784 5784 5783
5782 5781 5780 5779 5777 5775 5773 5771 5769 5767 5765 5764 5763 5763 5763 5763 5763 5765 5767 5771 5774 5776 5779 5781 5782 5782 5782 5783 5784 5786 5787 5788 5789 5788 5788 5789 5790 5792 5791 5789 5790 5792 5791 5791 5792 5794 5795 5794 5791 5791 5792 5792 5792 5792 5792 5791 5790 5790 5789 5789 5789 5788 5787 5787 5786 5786 5785 5785 5784 5783 5782 5782 5781 5781 5780 5780 5779 5779 5779 5780 5780 5781 5781 5781 5781 5781
5782 5781 5780 5779 5777 5775 5774 5771 5769 5766 5765 5763 5761 5761 5761 5761 5761 5762 5765 5768 5771 5774 5777 5779 5781 5781 5781 5782 5783 5785 5786 5787 5787 5786 5786 5787 5788 5789 5789 5789 5790 5790 5790 5790 5791 5793 5793 5792 5790 5788 5787 5788 5789 5789 5789 5788 5788 5788 5787 5787 5786 5785 5784 5783 5783 5782 5782 5781 5781 5780 5780 5779 5779 5778 5778 5777 5776 5776 5776 5776 5777 5777 5777 5777 5778 5778
5783 5782 5781 5779 5778 5776 5774 5771 5769 5766 5764 5762 5761 5759 5759 5759 5759 5761 5763 5765 5769 5772 5775 5778 5779 5780 5781 5782 5782 5783 5784 5785 5786 5785 5786 5786 5787 5788 5788 5788 5788 5789 5789 5789 5790 5790 5790 5790 5789 5787 5785 5785 5785 5786 5786 5785 5785 5785 5785 5784 5783 5782 5781 5780 5779 5779 5778 5778 5778 5778 5778 5778 5777 5777 5776 5776 5775 5774 5774 5773 5773 5773 5773 5773 5773 5774
5783 5782 5781 5779 5779 5777 5775 5773 5770 5766 5764 5762 5761 5760 5758 5758 5759 5760 5762 5764 5767 5770 5774 5776 5778 5779 5781 5782 5782 5782 5783 5784 5785 5785 5785 5786 5786 5787 5787 5787 5787 5787 5787 5787 5787 5788 5788 5788 5787 5786 5784 5783 5782 5782 5782 5782 5782 5782 5782 5781 5780 5779 5777 5776 5775 5775 5774 5774 5774 5775 5776 5776 5776 5775 5774 5774 5774 5773 5772 5771 5771 5770 5770 5770 5770 5770
5784 5782 5781 5780 5779 5778 5776 5774 5771 5767 5764 5762 5762 5760 5759 5758 5759 5760 5761 5764 5766 5769 5772 5775 5777 5779 5780 5781 5781 5782 5783 5783 5784 5784 5785 5785 5785 5786 5786 5786 5786 5786 5785 5785 5786 5786 5786 5786 5785 5784 5782 5781 5779 5779 5779 5779 5779 5778 5777 5777 5775 5775 5773 5772 5771 5771 5771 5770 5770 5770 5771 5772 5773 5772 5772 5771 5771 5771 5770 5769 5769 5768 5768 5768 5768 5768
5784 5783 5782 5781 5780 5778 5777 5774 5771 5768 5766 5764 5762 5761 5759 5759 5760 5761 5762 5764 5766 5769 5771 5773 5775 5777 5779 5780 5780 5781 5783 5784 5784 5784 5784 5784 5785 5784 5784 5784 5784 5783 5783 5783 5783 5783 5782 5782 5781 5781 5780 5778 5777 5776 5776 5776 5775 5774 5773 5772 5770 5769 5769 5768 5768 5768 5767 5767 5766 5766 5766 5766 5767 5768 5768 5767 5767 5767 5766 5766 5766 5766 5766 5767 5767 5767
5785 5784 5783 5781 5780 5778 5776 5775 5773 5770 5768 5766 5764 5762 5760 5760 5760 5762 5763 5765 5766 5768 5771 5773 5774 5776 5778 5778 5779 5781 5783 5784 5784 5784 5784 5784 5784 5783 5783 5782 5782 5781 5781 5780 5780 5779 5779 5778 5777 5777 5776 5775 5774 5773 5772 5773 5772 5771 5769 5767 5765 5765 5765 5764 5764 5764 5763 5763 5762 5762 5761 5761 5761 5762 5763 5763 5763 5763 5763 5763 5763 5763 5764 5764 5764 5764
5786 5785 5783 5781 5779 5777 5776 5775 5773 5772 5770 5768 5766 5764 5762 5761 5761 5763 5764 5765 5767 5769 5771 5772 5774 5775 5776 5777 5779 5780 5782 5783 5784 5784 5784 5783 5783 5783 5782 5782 5781 5780 5779 5778 5777 5776 5775 5774 5773 5773 5772 5771 5770 5769 5768 5769 5768 5767 5766 5763 5761 5762 5761 5759 5759 5759 5758 5758 5757 5757 5757 5757 5757 5757 5758 5759 5759 5759 5759 5759 5759 5759 5760 5760 5760 5760
5787 5785 5783 5781 5780 5778 5776 5775 5773 5773 5772 5770 5768 5766 5765 5763 5763 5764 5765 5767 5768 5770 5771 5772 5773 5774 5775 5777 5779 5780 5781 5782 5783 5783 5783 5782 5781 5781 5781 5780 5780 5778 5777 5776 5774 5773 5772 5771 5769 5768 5768 5767 5765 5764 5764 5764 5764 5763 5762 5759 5757 5756 5756 5754 5753 5753 5754 5753 5753 5752 5752 5752 5753 5753 5754 5754 5755 5755 5755 5755 5755 5755 5756 5756 5756 5757
5787 5786 5784 5782 5780 5779 5778 5777 5776 5775 5774 5772 5770 5769 5767 5766 5766 5766 5767 5768 5770 5771 5772 5773 5774 5775 5776 5777 5779 5780 5781 5781 5781 5780 5780 5780 5779 5779 5778 5778 5777 5776 5775 5773 5771 5770 5769 5767 5766 5764 5763 5762 5761 5760 5759 5758 5758 5758 5757 5755 5752 5750 5750 5749 5748 5748 5748 5748 5747 5747 5746 5746 5748 5748 5749 5749 5750 5750 5750 5750 5751 5751 5752 5753 5753 5753
5787 5786 5784 5783 5781 5781 5780 5779 5778 5777 5776 5774 5773 5772 5770 5769 5768 5769 5769 5770 5770 5771 5772 5773 5774 5775 5776 5778 5779 5780 5780 5780 5779 5778 5778 5777 5777 5776 5775 5774 5774 5773 5771 5770 5769 5767 5766 5764 5762 5761 5759 5757 5756 5755 5754 5753 5753 5752 5751 5750 5747 5745 5744 5744 5743 5742 5742 5742 5742 5741 5741 5742 5742 5743 5744 5744 5744 5745 5745 5745 5746 5747 5747 5748 5748 5749
5788 5786 5785 5784 5783 5782 5782 5781 5780 5779 5778 5776 5775 5775 5773 5772 5771 5771 5771 5771 5771 5772 5772 5773 5774 5775 5776 5778 5779 5779 5779 5779 5778 5777 5777 5776 5775 5773 5772 5771 5770 5769 5767 5766 5765 5763 5762 5760 5758 5757 5755 5753 5751 5750 5749 5748 5748 5747 5747 5745 5743 5741 5739 5738 5737 5737 5737 5737 5736 5735 5736 5737 5737 5738 5739 5738 5738 5739 5740 5740 5741 5741 5742 5743 5743 5744
5788 5787 5786 5785 5784 5783 5783 5782 5781 5780 5779 5778 5777 5777 5775 5774 5774 5773 5773 5772 5772 5772 5773 5774 5774 5775 5776 5777 5778 5778 5778 5778 5777 5777 5776 5775 5773 5772 5771 5769 5768 5767 5765 5763 5762 5760 5758 5757 5755 5753 5751 5749 5747 5746 5745 5744 5743 5743 5742 5741 5739 5737 5735 5734 5733 5732 5731 5731 5731 5730 5730 5731 5731 5732 5733 5732 5732 5733 5734 5734 5735 5736 5736 5737 5738 5738
5789 5788 5787 5786 5785 5784 5783 5783 5782 5781 5780 5779 5779 5778 5777 5776 5776 5775 5775 5774 5774 5774 5774 5774 5775 5775 5776 5776 5777 5777 5777 5777 5777 5776 5775 5774 5773 5771 5771 5770 5768 5767 5765 5763 5761 5759 5757 5755 5753 5750 5748 5746 5744 5742 5741 5740 5739 5738 5738 5736 5735 5733 5731 5729 5728 5727 5726 5725 5725 5724 5724 5725 5725 5726 5727 5727 5727 5727 5727 5728 5728 5729 5730 5731 5732 5733
5789 5788 5787 5786 5785 5784 5784 5783 5783 5782 5781 5780 5780 5779 5778 5778 5777 5777 5776 5776 5775 5775 5775 5775 5775 5776 5776 5776 5776 5776 5776 5776 5776 5775 5774 5773 5772 5771 5770 5769 5768 5766 5764 5762 5760 5758 5756 5754 5752 5749 5746 5744 5741 5739 5737 5736 5735 5734 5733 5732 5730 5729 5727 5725 5723 5722 5721 5720 5719 5718 5718 5718 5719 5720 5720 5721 5721 5721 5721 5721 5723 5724 5725 5726 5726 5726
5789 5789 5788 5787 5786 5784 5784 5783 5783 5782 5781 5781 5781 5780 5779 5779 5779 5778 5777 5777 5776 5776 5776 5776 5776 5776 5776 5776 5776 5776 5776 5775 5775 5774 5773 5772 5772 5771 5769 5768 5767 5765 5763 5761 5759 5757 5755 5753 5750 5747 5744 5742 5739 5737 5735 5733 5731 5730 5728 5727 5726 5724 5723 5721 5719 5717 5716 5715 5714 5713 5712 5712 5713 5713 5714 5714 5714 5714 5714 5715 5717 5718 5719 5720 5720 5721
5789 5789 5788 5787 5786 5785 5784 5783 5783 5782 5782 5782 5781 5781 5780 5780 5779 5779 5778 5778 5777 5777 5776 5776 5776 5776 5776 5776 5776 5775 5775 5774 5774 5773 5772 5771 5770 5769 5768 5766 5765 5763 5761 5760 5757 5755 5753 5750 5748 5746 5743 5740 5737 5735 5732 5730 5728 5726 5724 5722 5721 5719 5718 5716 5715 5713 5711 5710 5709 5709 5708 5707 5707 5707 5708 5708 5708 5708 5708 5709 5710 5712 5713 5714 5715 5715
5790 5789 5788 5787 5786 5785 5784 5783 5782 5782 5782 5782 5781 5781 5780 5780 5780 5779 5779 5778 5778 5777 5777 5776 5775 5775 5775 5775 5775 5774 5773 5773 5772 5771 5770 5769 5768 5767 5766 5764 5763 5761 5759 5758 5756 5754 5751 5749 5746 5743 5741 5738 5735 5732 5729 5727 5724 5722 5719 5717 5715 5714 5713 5712 5710 5708 5706 5705 5704 5703 5703 5702 5702 5701 5702 5702 5701 5701 5702 5702 5703 5705 5706 5707 5708 5709
5790 5789 5788 5787 5786 5785 5784 5784 5783 5782 5782 5782 5781 5781 5780 5780 5780 5779 5779 5778 5778 5777 5777 5776 5775 5775 5775 5774 5774 5773 5772 5771 5770 5770 5769 5768 5766 5765 5763 5762 5760 5759 5757 5756 5754 5752 5749 5747 5744 5741 5739 5736 5733 5730 5727 5724 5721 5718 5715 5713 5710 5708 5707 5706 5705 5703 5702 5700 5698 5697 5697 5696 5696 5696 5696 5696 5696 5696 5696 5696 5697 5698 5700 5701 5702 5703
5791 5790 5789 5788 5787 5786 5785 5784 5784 5783 5782 5782 5781 5780 5780 5779 5779 5778 5778 5777 5777 5777 5776 5775 5774 5774 5773 5773 5772 5771 5770 5769 5769 5768 5766 5765 5764 5763 5761 5760 5758 5757 5755 5753 5751 5749 5747 5744 5742 5739 5737 5734 5731 5728 5725 5722 5718 5715 5712 5709 5706 5704 5701 5700 5699 5698 5697 5695 5693 5692 5691 5690 5690 5690 5690 5690 5690 5690 5691 5691 5691 5692 5694 5695 5696 5697
5791 5790 5790 5789 5788 5787 5785 5784 5784 5783 5782 5781 5780 5780 5779 5779 5778 5778 5777 5776 5776 5775 5775 5774 5773 5772 5771 5771 5770 5769 5768 5767 5766 5765 5764 5763 5762 5761 5759 5758 5756 5754 5752 5750 5748 5746 5744 5742 5740 5737 5734 5732 5729 5726 5722 5719 5716 5712 5709 5706 5703 5700 5697 5696 5694 5693 5691 5690 5689 5687 5686 5685 5684 5683 5684 5684 5684 5684 5685 5685 5686 5687 5688 5689 5690 5691
5791 5790 5790 5789 5788 5787 5785 5784 5783 5783 5782 5781 5780 5779 5779 5778 5777 5777 5776 5775 5775 5774 5773 5772 5771 5770 5769 5769 5768 5767 5766 5765 5764 5763 5762 5761 5760 5758 5757 5755 5753 5751 5749 5747 5745 5743 5741 5739 5737 5734 5732 5729 5726 5723 5720 5717 5713 5710 5706 5703 5699 5696 5694 5692 5690 5688 5687 5685 5684 5682 5681 5679 5678 5678 5677 5678 5678 5678 5679 5680 5681 5681 5682 5683 5684 5685
5791 5790 5789 5788 5787 5786 5785 5784 5783 5782 5781 5781 5780 5779 5778 5777 5777 5776 5775 5774 5773 5773 5772 5771 5770 5769 5768 5767 5766 5766 5765 5764 5763 5762 5761 5759 5758 5756 5754 5752 5750 5748 5747 5744 5742 5740 5738 5736 5734 5731 5729 5726 5723 5720 5717 5714 5710 5707 5703 5699 5696 5693 5691 5688 5686 5684 5682 5681 5679 5678 5676 5675 5673 5672 5672 5672 5672 5672 5673 5674 5675 5675 5676 5677 5678 5679
5791 5790 5789 5788 5787 5786 5785 5784 5783 5782 5781 5780 5780 5779 5778 5777 5776 5776 5775 5774 5773 5772 5771 5770 5769 5768 5767 5766 5765 5764 5764 5763 5761 5760 5759 5757 5756 5754 5752 5750 5748 5746 5743 5741 5739 5737 5734 5732 5730 5728 5725 5722 5720 5717 5714 5711 5707 5704 5700 5697 5694 5690 5688 5685 5683 5680 5678 5676 5675 5673 5672 5670 5669 5667 5667 5666 5666 5666 5667 5668 5668 5669 5670 5671 5672 5673
5790 5789 5788 5788 5787 5786 5785 5784 5783 5782 5781 5780 5779 5779 5778 5777 5776 5775 5774 5773 5772 5771 5770 5769 5768 5767 5766 5765 5764 5763 5762 5761 5760 5758 5757 5755 5753 5751 5749 5747 5745 5743 5741 5738 5736 5733 5731 5729 5727 5724 5722 5719 5716 5714 5711 5707 5704 5701 5697 5694 5691 5688 5686 5683 5680 5678 5675 5672 5670 5669 5668 5666 5664 5663 5662 5661 5661 5661 5661 5662 5663 5663 5664 5665 5666 5667
5790 5789 5788 5787 5787 5786 5785 5784 5783 5782 5781 5780 5779 5779 5778 5777 5776 5775 5774 5773 5771 5771 5770 5769 5767 5766 5765 5764 5763 5762 5761 5759 5758 5756 5755 5753 5751 5749 5747 5745 5743 5741 5738 5736 5733 5731 5728 5726 5723 5721 5718 5716 5713 5710 5707 5704 5701 5698 5695 5692 5689 5686 5684 5681 5678 5675 5672 5669 5667 5665 5663 5662 5660 5659 5658 5657 5656 5656 5656 5656 5657 5658 5658 5659 5660 5661
5790 5789 5788 5787 5786 5785 5785 5784 5782 5781 5780 5779 5779 5778 5777 5776 5775 5774 5773 5772 5771 5770 5768 5768 5767 5766 5764 5763 5762 5761 5759 5758 5756 5754 5753 5751 5749 5747 5745 5743 5741 5738 5736 5734 5731 5729 5726 5723 5721 5718 5715 5712 5710 5707 5704 5701 5698 5695 5692 5689 5686 5684 5681 5678 5675 5672 5669 5666 5664 5661 5659 5658 5656 5655 5654 5653 5652 5651 5651 5651 5652 5652 5653 5654 5655 5656
5790 5789 5788 5787 5786 5785 5784 5783 5782 5781 5779 5779 5778 5777 5776 5775 5774 5772 5771 5770 5770 5769 5767 5766 5766 5765 5763 5762 5760 5759 5757 5756 5754 5752 5751 5749 5747 5746 5743 5741 5738 5736 5734 5732 5729 5726 5724 5721 5718 5715 5713 5710 5707 5704 5701 5698 5695 5692 5689 5686 5684 5681 5678 5676 5673 5669 5666 5663 5660 5658 5656 5654 5652 5651 5650 5649 5648 5647 5646 5647 5647 5647 5648 5648 5649 5650
5790 5789 5788 5787 5786 5785 5784 5783 5781 5780 5779 5778 5777 5776 5775 5774 5773 5771 5770 5769 5769 5768 5766 5765 5764 5763 5762 5760 5759 5758 5756 5754 5752 5751 5749 5747 5745 5743 5741 5739 5736 5734 5732 5729 5727 5724 5722 5719 5716 5713 5711 5708 5705 5702 5699 5696 5693 5689 5686 5684 5681 5678 5676 5673 5670 5667 5663 5660 5657 5655 5653 5651 5649 5647 5646 5645 5644 5643 5642 5642 5642 5642 5643 5643 5644 5645
5789 5788 5787 5786 5785 5784 5783 5782 5781 5780 5778 5777 5776 5775 5774 5773 5772 5770 5769 5768 5767 5766 5765 5764 5762 5761 5760 5759 5758 5756 5754 5753 5751 5749 5748 5746 5744 5742 5739 5737 5735 5732 5730 5728 5725 5722 5720 5717 5714 5712 5709 5706 5703 5700 5697 5694 5690 5687 5684 5681 5678 5676 5673 5670 5667 5664 5661 5658 5655 5652 5650 5648 5646 5644 5642 5641 5640 5639 5638 5638 5638 5638 5638 5638 5639 5639
5789 5787 5786 5785 5785 5784 5782 5781 5780 5779 5778 5777 5776 5774 5773 5772 5771 5769 5768 5767 5766 5765 5764 5762 5761 5760 5759 5757 5756 5755 5753 5751 5750 5748 5746 5744 5742 5740 5737 5735 5733 5731 5728 5726 5723 5720 5718 5715 5712 5709 5707 5704 5700 5697 5694 5691 5688 5685 5682 5679 5676 5673 5670 5668 5665 5662 5659 5656 5653 5650 5647 5645 5643 5641 5639 5638 5636 5635 5634 5634 5633 5633 5634 5634 5634 5634
5788 5787 5786 5785 5784 5783 5782 5780 5779 5778 5777 5776 5775 5774 5773 5771 5770 5769 5767 5766 5765 5764 5763 5761 5759 5758 5757 5756 5755 5753 5752 5750 5748 5746 5744 5742 5740 5738 5735 5733 5731 5729 5726 5724 5721 5718 5715 5713 5710 5707 5704 5701 5698 5695 5692 5689 5686 5683 5680 5677 5674 5671 5668 5666 5663 5660 5657 5654 5652 5649 5646 5643 5640 5638 5636 5635 5633 5631 5630 5629 5629 5629 5629 5629 5629 5629
5788 5787 5786 5785 5784 5783 5781 5780 5778 5777 5776 5775 5774 5773 5772 5770 5768 5767 5766 5764 5764 5763 5761 5760 5758 5757 5755 5754 5753 5752 5750 5748 5746 5744 5742 5740 5738 5736 5734 5731 5729 5727 5724 5721 5719 5716 5713 5710 5708 5705 5702 5699 5696 5694 5691 5688 5685 5681 5678 5675 5672 5669 5666 5664 5661 5658 5655 5652 5649 5647 5644 5641 5638 5636 5634 5632 5630 5628 5626 5625 5624 5624 5625 5625 5625 5625
5787 5786 5785 5784 5783 5782 5781 5779 5778 5777 5775 5774 5773 5772 5771 5769 5767 5766 5765 5764 5763 5762 5760 5759 5757 5755 5754 5753 5751 5750 5748 5746 5744 5742 5740 5738 5736 5734 5731 5729 5727 5724 5722 5719 5716 5713 5711 5708 5706 5703 5700 5697 5694 5691 5688 5686 5683 5679 5676 5673 5670 5667 5664 5661 5658 5656 5653 5650 5647 5644 5642 5639 5637 5634 5632 5629 5627 5625 5623 5621 5620 5620 5620 5621 5621 5621
5787 5786 5784 5783 5782 5781 5780 5779 5777 5776 5775 5774 5773 5771 5770 5768 5766 5765 5764 5763 5762 5760 5759 5757 5756 5754 5753 5751 5750 5748 5746 5744 5742 5740 5738 5736 5733 5731 5729 5727 5724 5722 5719 5716 5714 5711 5709 5706 5703 5700 5697 5694 5692 5689 5686 5683 5680 5677 5674 5671 5668 5665 5662 5659 5656 5653 5651 5648 5645 5641 5639 5636 5634 5632 5630 5627 5625 5622 5620 5618 5617 5616 5616 5616 5617 5617
5785 5784 5783 5782 5781 5780 5779 5778 5776 5775 5774 5773 5772 5770 5769 5767 5765 5764 5763 5761 5760 5758 5757 5755 5754 5752 5751 5750 5748 5746 5744 5742 5739 5737 5735 5733 5731 5729 5726 5724 5722 5719 5717 5714 5711 5709 5706 5703 5701 5698 5695 5692 5689 5686 5684 5681 5678 5675 5672 5669 5666 5663 5660 5657 5654 5651 5648 5645 5642 5639 5636 5633 5631 5629 5627 5625 5623 5620 5618 5615 5614 5613 5612 5612 5612 5612
5784 5783 5782 5781 5780 5778 5777 5777 5776 5774 5772 5771 5770 5768 5767 5765 5764 5762 5760 5759 5757 5756 5754 5753 5751 5750 5749 5747 5745 5743 5741 5739 5737 5735 5733 5730 5728 5726 5724 5721 5719 5717 5714 5712 5709 5706 5703 5701 5698 5695 5692 5689 5687 5684 5681 5678 5675 5672 5670 5667 5664 5661 5657 5654 5651 5648 5645 5642 5639 5636 5633 5631 5628 5625 5624 5622 5620 5618 5615 5613 5611 5610 5608 5607 5607 5608
5782 5781 5780 5779 5777 5777 5776 5775 5774 5773 5771 5769 5768 5767 5765 5764 5762 5760 5759 5757 5755 5753 5752 5750 5749 5747 5746 5744 5742 5740 5738 5736 5735 5732 5730 5728 5726 5724 5721 5719 5716 5714 5711 5709 5706 5703 5700 5698 5695 5692 5689 5687 5684 5681 5679 5676 5673 5670 5667 5664 5661 5658 5655 5651 5648 5645 5642 5639 5636 5633 5630 5628 5625 5622 5620 5618 5617 5615 5613 5610 5608 5606 5605 5604 5603 5603
5780 5779 5778 5776 5775 5774 5773 5772 5771 5770 5769 5767 5766 5765 5763 5762 5760 5758 5757 5755 5753 5751 5749 5748 5746 5745 5743 5741 5739 5737 5735 5733 5732 5730 5727 5725 5723 5720 5718 5716 5713 5711 5708 5706 5703 5700 5697 5695 5692 5689 5686 5684 5681 5678 5676 5673 5670 5667 5664 5661 5658 5655 5652 5649 5645 5642 5638 5635 5632 5630 5627 5624 5622 5619 5617 5614 5613 5611 5610 5607 5605 5603 5602 5600 5599 5599
5777 5776 5775 5774 5773 5772 5771 5770 5769 5768 5766 5765 5764 5762 5761 5760 5758 5756 5754 5753 5751 5749 5747 5745 5743 5742 5740 5738 5736 5734 5732 5731 5729 5727 5725 5722 5720 5718 5715 5713 5710 5708 5705 5702 5700 5697 5694 5691 5689 5686 5683 5681 5678 5675 5673 5670 5667 5664 5662 5659 5656 5652 5649 5645 5642 5639 5635 5632 5629 5626 5623 5621 5618 5616 5613 5611 5609 5608 5606 5604 5602 5600 5599 5597 5596 5595
5773 5772 5771 5770 5769 5768 5768 5767 5766 5765 5764 5763 5761 5760 5759 5757 5756 5754 5752 5751 5749 5747 5745 5743 5741 5739 5738 5736 5734 5732 5730 5728 5726 5724 5722 5719 5717 5715 5713 5710 5707 5705 5702 5699 5696 5693 5691 5688 5685 5683 5680 5678 5675 5672 5670 5667 5664 5661 5658 5656 5653 5649 5646 5642 5639 5635 5632 5629 5626 5623 5620 5617 5614 5612 5610 5607 5605 5604 5602 5601 5599 5597 5595 5594 5592 5591
5770 5768 5767 5767 5766 5765 5765 5764 5763 5762 5761 5760 5759 5758 5756 5755 5753 5752 5750 5749 5747 5745 5743 5741 5739 5737 5735 5733 5732 5730 5728 5726 5724 5721 5719 5717 5714 5712 5709 5707 5704 5701 5698 5695 5693 5690 5687 5685 5682 5679 5677 5674 5672 5669 5666 5663 5660 5657 5655 5652 5649 5646 5643 5639 5636 5632 5629 5626 5622 5619 5617 5614 5611 5608 5605 5603 5601 5599 5598 5597 5595 5594 5592 5590 5589 5587
5767 5765 5764 5763 5762 5762 5762 5762 5760 5760 5759 5757 5756 5755 5753 5752 5750 5749 5748 5746 5745 5743 5741 5739 5737 5735 5733 5731 5729 5727 5725 5723 5721 5719 5716 5714 5711 5708 5706 5703 5700 5697 5695 5692 5689 5686 5683 5681 5678 5676 5673 5671 5668 5666 5663 5660 5657 5654 5651 5649 5646 5643 5639 5636 5633 5629 5626 5622 5619 5616 5613 5610 5607 5604 5601 5599 5597 5595 5593 5592 5591 5590 5589 5587 5585 5583
5764 5762 5761 5760 5759 5759 5759 5758 5758 5757 5756 5754 5753 5752 5751 5749 5748 5746 5745 5744 5742 5740 5739 5737 5735 5733 5731 5729 5727 5725 5723 5721 5718 5716 5713 5710 5707 5704 5702 5699 5697 5694 5691 5689 5686 5683 5680 5677 5675 5672 5670 5667 5665 5662 5659 5656 5653 5651 5648 5645 5642 5639 5636 5632 5629 5625 5622 5619 5615 5612 5609 5606 5603 5600 5598 5595 5593 5591 5589 5587 5586 5585 5584 5583 5582 5580
5760 5759 5758 5757 5757 5756 5756 5755 5755 5755 5754 5752 5751 5750 5748 5747 5745 5744 5742 5741 5739 5738 5736 5734 5733 5731 5728 5726 5724 5722 5720 5717 5715 5712 5709 5706 5704 5701 5698 5696 5693 5691 5688 5685 5682 5680 5677 5674 5671 5669 5666 5664 5661 5658 5655 5653 5650 5647 5644 5641 5638 5635 5632 5629 5625 5622 5618 5614 5611 5608 5605 5602 5599 5597 5594 5591 5588 5586 5584 5583 5582 5581 5579 5578 5577 5576
5758 5756 5755 5754 5754 5754 5753 5752 5752 5752 5751 5750 5748 5747 5746 5745 5743 5741 5740 5738 5737 5735 5733 5731 5729 5727 5725 5723 5721 5719 5716 5714 5711 5708 5705 5703 5700 5698 5695 5693 5690 5687 5685 5682 5679 5676 5673 5670 5668 5665 5663 5660 5657 5654 5652 5649 5646 5643 5640 5637 5634 5631 5628 5625 5621 5618 5614 5610 5607 5604 5601 5598 5595 5592 5590 5587 5585 5582 5579 5577 5576 5576 5575 5574 5573 5572
5756 5755 5753 5753 5752 5752 5751 5750 5750 5749 5748 5747 5746 5745 5744 5743 5741 5739 5737 5735 5734 5732 5730 5728 5725 5724 5721 5719 5717 5715 5712 5710 5707 5704 5702 5700 5697 5694 5692 5689 5686 5684 5681 5678 5675 5672 5669 5667 5664 5662 5659 5656 5653 5650 5648 5645 5642 5639 5636 5633 5630 5627 5623 5620 5617 5613 5610 5606 5603 5599 5596 5593 5591 5588 5585 5583 5581 5578 5576 5573 5571 5569 5569 5569 5569 5567